Regional Weather Roundup
Issued by NWS

Home | Current Version | Previous Version | Text Only | Print | Product List | Glossary Off
Versions: 1 2 3 4 5 6 7 8 9 10 11 12 13 14 15 16 17 18 19 20 21 22 23 24 25 26 27 28 29 30 31 32 33 34 35 36 37 38 39 40 41 42 43 44 45 46 47 48 49 50

000
ASUS43 KMPX 240510
RWRMN
WEATHER ROUNDUP FOR MINNESOTA
NATIONAL WEATHER SERVICE TWIN CITIES/CHANHASSEN MN
1100 PM CST THU NOV 23 2017


NOTE: "FAIR" INDICATES FEW OR NO CLOUDS BELOW 12,000 FEET WITH NO
SIGNIFICANT WEATHER AND/OR OBSTRUCTIONS TO VISIBILITY. N/A MEANS
CURRENT SKY AND/OR WEATHER CONDITIONS ARE NOT AVAILABLE.

MNZ060>063-068>070-240600-
   Twin Cities Metro

CITY           SKY/WX    TMP DP  RH WIND       PRES   REMARKS
TWIN CITIES    MOCLDY    48  34  58 S10G18    29.59F
ST PAUL        PTCLDY    42  31  64 E8        29.61F
CRYSTAL        CLOUDY    46  30  53 S8        29.57F
BLAINE         MOCLDY    45  34  65 S9        29.57F
LAKEVILLE      CLOUDY    43  32  65 S7        29.60F
EDEN PRAIRIE   PTCLDY    46  32  58 S15       29.58F
SOUTH ST PAUL  PTCLDY    44  31  60 S8        29.60F
LAKE ELMO      FAIR      41  32  70 S9        29.62F
$$
MNZ001>005-007-008-013>017-022>024-027-028-240600-
   Northwest Minnesota

CITY           SKY/WX    TMP DP  RH WIND       PRES   REMARKS
BEMIDJI        CLEAR     39  32  77 S8        29.36F
HALLOCK        CLOUDY    37  34  87 S14       29.23F
ROSEAU         PTCLDY    43  36  75 SW15      29.22F
WARROAD        CLOUDY    41  36  81 SW14      29.23F
THIEF RVR FALL CLOUDY    41  35  79 SW12      29.31F
CROOKSTON      PTCLDY    43  36  75 SW16      29.32F
FOSSTON        CLEAR     39  34  81 S15       29.35F
DETROIT LAKES  CLEAR     45  36  70 SW13      29.41F
MOORHEAD       CLEAR     43  36  75 S12       29.40F
PARK RAPIDS    CLEAR     32  28  85 S6        29.41F WCI  26
MAHNOMEN       FAIR      41  35  79 S15       29.37F
$$
MNZ006-009>011-018-025>026-240600-
   North Central Minnesota

CITY           SKY/WX    TMP DP  RH WIND       PRES   REMARKS
BAUDETTE       CLOUDY    38  33  82 SW12G20   29.25F
FLAG ISLAND    CLOUDY    30  27  86 S14       29.19F WCI  20
INTL FALLS     PTCLDY    38  29  70 VRB7      29.29F
WASKISH        CLEAR     45  36  70 S10G20    29.30F
BIG FORK       CLEAR     37  30  75 S12G18    29.36F
LONGVILLE      CLEAR     37  30  75 S7        29.42F
GRAND RAPIDS   CLEAR     35  28  75 S12       29.43F WCI  27
CRANE LAKE     CLOUDY    34  27  75 S9        29.36F WCI  26
ORR            CLOUDY    36  27  69 S9        29.34F
COOK           CLOUDY    36  27  69 S8        29.39F
WALKER         FAIR      40  32  74 SW14G21   29.39F
$$
MNZ012-019>021-037-240600-
   Northeast Minnesota

CITY           SKY/WX    TMP DP  RH WIND       PRES   REMARKS
DULUTH         PTCLDY    37  28  70 SW18      29.45F
ELY            CLOUDY    36  27  69 SW12G22   29.40F
HIBBING        PTCLDY    33  25  72 S6        29.42F WCI  28
EVELETH        PTCLDY    32  23  69 S6        29.44F WCI  27
DULUTH HARBOR  MOCLDY    39  30  70 SW14      29.50F
TWO HARBORS    CLOUDY    36  28  75 CALM      29.46F
SILVER BAY     CLOUDY    34  28  80 CALM      29.46F
GRAND MARAIS     N/A     40  33  76 SW14      29.50F
G MARAIS ARPRT CLOUDY    30  27  86 S8        29.46F WCI  23
$$
MNZ029>031-032-039>041-046>048-054>057-064-240600-
   West Central Minnesota

CITY           SKY/WX    TMP DP  RH WIND       PRES   REMARKS
FERGUS FALLS   CLEAR     39  34  81 S9        29.46F
WHEATON        CLEAR     54  37  54 SW13G18   29.46F
MORRIS         PTCLDY    43  36  75 S7        29.47F
ALEXANDRIA     CLEAR     45  36  70 S13       29.48F
ELBOW LAKE     FAIR      40  35  81 S13       29.46F
WADENA         CLEAR     41  34  75 S9        29.43F
GLENWOOD       PTCLDY    43  36  75 SW8       29.50F
APPLETON       PTCLDY    43  36  75 SW5       29.49F
BENSON         PTCLDY    41  34  75 S6        29.52F
ORTONVILLE     CLEAR     52  39  62 NW9G17    29.48F
MADISON        CLEAR     54  41  62 SW12      29.50F
WILLMAR        FAIR      39  34  81 SE5       29.54F
$$
MNZ033>034-036-042>043-049>051-058-059-240600-
   Central Minnesota

CITY           SKY/WX    TMP DP  RH WIND       PRES   REMARKS
ST CLOUD       CLOUDY    42  33  70 S7        29.53F
SAUK CENTRE    FAIR      41  34  75 S3        29.50F
PAYNESVILLE    PTCLDY    44  35  71 SW6       29.53F
AITKIN         CLEAR     36  28  75 S8        29.44F
PINE RIVER     CLEAR     30  27  86 SE5       29.49F WCI  25
BRAINERD       CLOUDY    39  30  70 S12       29.46F
STAPLES        CLEAR     39  32  75 S9        29.45F
LONG PRAIRIE   FAIR      39  32  75 S7        29.49F
LITTLE FALLS   PTCLDY    37  28  70 S3        29.50F
LITCHFIELD     PTCLDY    43  36  75 S3        29.55F
BUFFALO        MOCLDY    44  32  63 S6        29.56F
MAPLE LAKE     MOCLDY    45  34  67 S5        29.56F
HUTCHINSON     CLOUDY    43  34  70 S7        29.57F
$$
MNZ037-044-045-052-053-240600-
   East Central Minnesota

CITY           SKY/WX    TMP DP  RH WIND       PRES   REMARKS
PRINCETON      CLOUDY    45  34  65 S8        29.54F
MORA           CLOUDY    36  28  75 SW3       29.55F
CAMBRIDGE      CLOUDY    45  30  57 S8        29.55F
MOOSE LAKE     PTCLDY    36  27  69 S9        29.48F
HINCKLEY       MOCLDY    36  30  80 S6        29.54F
CLOQUET        CLOUDY    37  27  65 S14       29.46F
MCGREGOR       PTCLDY    37  32  81 S10G16    29.47F
$$
MNZ071>073-080-081-089-090-097-098-240600-
   Southwest Minnesota

CITY           SKY/WX    TMP DP  RH WIND       PRES   REMARKS
MONTEVIDEO     CLEAR     45  37  76 SW8       29.51F
GRANITE FALLS  CLEAR     48  38  69 S12       29.54F
CANBY          CLEAR     55  40  55 SW16G24   29.53F
MARSHALL       CLEAR     52  39  61 SW14      29.54F
REDWOOD FALLS  CLEAR     48  36  63 SW13      29.55F
OLIVIA         CLEAR     41  34  75 S7        29.54F
PIPESTONE      CLEAR     46  37  71 SW9       29.59F
WINDOM         CLEAR     48  30  49 S18       29.60F
WORTHINGTON    CLEAR     48  38  68 SW17      29.62F
JACKSON        CLEAR     46  36  66 S12       29.63F
SLAYTON        CLEAR     47  38  71 SW16      29.59F
$$
MNZ065>067-074>077-082>085-091>093-240600-
   South Central Minnesota

CITY           SKY/WX    TMP DP  RH WIND       PRES   REMARKS
MANKATO        CLOUDY    43  32  65 S14       29.61F
NEW ULM        CLEAR     43  32  65 CALM      29.58F
ST JAMES       CLEAR     43  34  70 S15       29.61F
FAIRMONT       CLEAR     45  34  65 S15       29.64F
GLENCOE        PTCLDY    44  34  66 S9        29.57F
FARIBAULT      CLOUDY    43  34  70 S9G16     29.63F
OWATONNA       CLEAR     43  32  65 S17       29.64F
WASECA         CLEAR     41  32  70 S14       29.65F
ALBERT LEA     CLOUDY    45  30  57 S12G17    29.67F
$$
MNZ078>079-086>088-094>096-240600-
   Southeast Minnesota

CITY           SKY/WX    TMP DP  RH WIND       PRES   REMARKS
ROCHESTER      CLEAR     41  31  67 S18       29.67F
RED WING       CLOUDY    45  28  53 S6        29.64F
STANTON        CLEAR     43  32  64 S15       29.60F
DODGE CENTER   CLEAR     43  30  61 S24       29.65F
WINONA         PTCLDY    43  30  61 CALM      29.70F
AUSTIN         CLOUDY    37  30  75 S10       29.69F
PRESTON        CLEAR     39  29  67 S17       29.71F
$$
ABBREVIATIONS USED IN REMARKS
   TC - TEMPERATURES IN CELSIUS
  WCI - WIND CHILL INDEX
   HX - HEAT INDEX
  VSB - VISIBILITY
$$




USA.gov is the U.S. government's official web portal to all federal, state and local government web resources and services.